�N����,����,�g�[���i�䏊�j���x,�g�[�����x,��g�[���i���ցj���x,����
 2004/04/01, 0:00,19.5,50,15.2,-9.9
 2004/04/01, 0:15,19.1,49,15.2,-9.9
 2004/04/01, 0:30,19,49,14.8,-9.9
 2004/04/01, 0:45,18.6,49,14.9,-9.9
 2004/04/01, 1:00,18.4,49,14.6,-9.9
 2004/04/01, 1:15,18.2,49,14.4,-9.9
 2004/04/01, 1:30,18,49,14.2,-9.9
 2004/04/01, 1:45,17.8,49,14.2,-9.9
 2004/04/01, 2:00,17.6,49,14.1,-9.9
 2004/04/01, 2:15,17.4,49,14,-9.9
 2004/04/01, 2:30,17.3,49,13.9,-9.9
 2004/04/01, 2:45,17.2,49,13.8,-9.9
 2004/04/01, 3:00,16.9,49,13.7,-9.9
 2004/04/01, 3:15,16.8,49,13.5,-9.9
 2004/04/01, 3:30,16.7,49,13.4,-9.9
 2004/04/01, 3:45,16.5,49,13.3,-9.9
 2004/04/01, 4:00,16.4,49,13.2,-9.9
 2004/04/01, 4:15,16.3,49,13.1,-9.9
 2004/04/01, 4:30,16.1,50,13,-9.9
 2004/04/01, 4:45,16,49,13,-9.9
 2004/04/01, 5:00,15.8,50,12.8,-9.9
 2004/04/01, 5:15,15.7,50,12.7,-9.9
 2004/04/01, 5:30,15.6,50,12.7,-9.9
 2004/04/01, 5:45,15.5,50,12.5,-9.9
 2004/04/01, 6:00,15.3,50,12.5,-9.9
 2004/04/01, 6:15,19.3,50,12.3,-9.9
 2004/04/01, 6:30,19.8,51,12.3,-9.9
 2004/04/01, 6:45,20.1,51,12.3,-9.9
 2004/04/01, 7:00,20.4,51,12.4,-9.9
 2004/04/01, 7:15,19.4,51,12.5,-9.9
 2004/04/01, 7:30,18.6,52,12.6,-9.9
 2004/04/01, 7:45,18,50,13,-9.9
 2004/04/01, 8:00,17.8,50,13.2,-9.9
 2004/04/01, 8:15,17.7,48,13.2,-9.9
 2004/04/01, 8:30,17.5,47,13.5,-9.9
 2004/04/01, 8:45,18.6,48,13.6,-9.9
 2004/04/01, 9:00,18.2,49,13.7,-9.9
 2004/04/01, 9:15,18.1,47,14.2,-9.9
 2004/04/01, 9:30,18.1,47,14.3,-9.9
 2004/04/01, 9:45,18.2,48,14.3,-9.9
 2004/04/01,10:00,18.5,53,14.4,-9.9
 2004/04/01,10:15,18.5,53,14.5,-9.9
 2004/04/01,10:30,18.3,52,14.6,-9.9
 2004/04/01,10:45,18.2,51,14.8,-9.9
 2004/04/01,11:00,18.2,50,15.5,-9.9
 2004/04/01,11:15,18.2,50,16.2,-9.9
 2004/04/01,11:30,18.1,50,16,-9.9
 2004/04/01,11:45,18.2,49,15.4,-9.9
 2004/04/01,12:00,18.2,49,15.3,-9.9
 2004/04/01,12:15,18.2,49,15.2,-9.9
 2004/04/01,12:30,18.2,49,15.5,-9.9
 2004/04/01,12:45,18.2,48,15.3,-9.9
 2004/04/01,13:00,18.3,48,15.4,-9.9
 2004/04/01,13:15,18.2,47,15.4,-9.9
 2004/04/01,13:30,18.2,47,15.5,-9.9
 2004/04/01,13:45,18.2,46,15.8,-9.9
 2004/04/01,14:00,18.2,46,16.2,-9.9
 2004/04/01,14:15,18.1,45,16.2,-9.9
 2004/04/01,14:30,18.1,44,16.2,-9.9
 2004/04/01,14:45,18.1,44,16.2,-9.9
 2004/04/01,15:00,18.1,44,16.3,-9.9
 2004/04/01,15:15,18,44,16.2,-9.9
 2004/04/01,15:30,18,44,16.2,-9.9
 2004/04/01,15:45,18,44,16.2,-9.9
 2004/04/01,16:00,18.1,44,16.3,-9.9
 2004/04/01,16:15,18.1,44,16.3,-9.9
 2004/04/01,16:30,18.1,44,16.3,-9.9
 2004/04/01,16:45,18.1,44,16.3,-9.9
 2004/04/01,17:00,18.2,44,16.3,-9.9
 2004/04/01,17:15,18,44,16.1,-9.9
 2004/04/01,17:30,18.1,47,16.2,-9.9
 2004/04/01,17:45,18.1,47,16.1,-9.9
 2004/04/01,18:00,18,46,16,-9.9
 2004/04/01,18:15,17.9,46,16,-9.9
 2004/04/01,18:30,20.5,44,16.1,-9.9
 2004/04/01,18:45,20.1,45,16,-9.9
 2004/04/01,19:00,19.9,45,16,-9.9
 2004/04/01,19:15,20.3,49,15.9,-9.9
 2004/04/01,19:30,20.4,47,15.9,-9.9
 2004/04/01,19:45,20.4,44,16.1,-9.9
 2004/04/01,20:00,20.4,43,16.2,-9.9
 2004/04/01,20:15,20.6,44,16.1,-9.9
 2004/04/01,20:30,21.2,42,16.1,-9.9
 2004/04/01,20:45,21,43,16.2,-9.9
 2004/04/01,21:00,21.4,43,16.1,-9.9
 2004/04/01,21:15,21.1,46,16.2,-9.9
 2004/04/01,21:30,21.1,48,16.3,-9.9
 2004/04/01,21:45,20.8,47,16.1,-9.9
 2004/04/01,22:00,21,48,16.1,-9.9
 2004/04/01,22:15,21,52,16.2,-9.9
 2004/04/01,22:30,20.9,50,16.1,-9.9
 2004/04/01,22:45,20.8,51,16,-9.9
 2004/04/01,23:00,21,56,16.1,-9.9
 2004/04/01,23:15,20.8,56,16.2,-9.9
 2004/04/01,23:30,20.6,54,16.1,-9.9
 2004/04/01,23:45,20.4,53,16.1,-9.9
 2004/04/02, 0:00,20.4,52,16,-9.9
 2004/04/02, 0:15,20.1,52,16,-9.9
 2004/04/02, 0:30,20.1,51,15.9,-9.9
 2004/04/02, 0:45,19.8,51,15.9,-9.9
 2004/04/02, 1:00,19.8,51,15.8,-9.9
 2004/04/02, 1:15,19.7,50,15.7,-9.9
 2004/04/02, 1:30,19.6,50,15.7,-9.9
 2004/04/02, 1:45,19.5,50,15.7,-9.9
 2004/04/02, 2:00,19.3,50,15.7,-9.9
 2004/04/02, 2:15,19.3,50,15.7,-9.9
 2004/04/02, 2:30,19.4,50,15.7,-9.9
 2004/04/02, 2:45,19.2,50,15.7,-9.9
 2004/04/02, 3:00,19,50,15.7,-9.9
 2004/04/02, 3:15,19,50,15.7,-9.9
 2004/04/02, 3:30,19.2,49,15.7,-9.9
 2004/04/02, 3:45,19,49,15.8,-9.9
 2004/04/02, 4:00,19.1,49,15.8,-9.9
 2004/04/02, 4:15,18.9,49,15.9,-9.9
 2004/04/02, 4:30,18.9,49,16,-9.9
 2004/04/02, 4:45,18.8,49,16,-9.9
 2004/04/02, 5:00,18.7,49,16.1,-9.9
 2004/04/02, 5:15,18.6,49,16.1,-9.9
 2004/04/02, 5:30,18.5,49,16,-9.9
 2004/04/02, 5:45,18.4,49,16,-9.9
 2004/04/02, 6:00,18.5,49,16.1,-9.9
 2004/04/02, 6:15,19.5,49,16,-9.9
 2004/04/02, 6:30,20,50,16,-9.9
 2004/04/02, 6:45,20.2,53,15.9,-9.9
 2004/04/02, 7:00,20.3,52,16.2,-9.9
 2004/04/02, 7:15,20.6,51,15.6,-9.9
 2004/04/02, 7:30,20.6,50,15.5,-9.9
 2004/04/02, 7:45,20.6,51,15.6,-9.9
 2004/04/02, 8:00,21,52,15.7,-9.9
 2004/04/02, 8:15,21,54,15.9,-9.9
 2004/04/02, 8:30,21.3,56,16.1,-9.9
 2004/04/02, 8:45,21.2,59,16.2,-9.9
 2004/04/02, 9:00,20.7,58,17.1,-9.9
 2004/04/02, 9:15,20.5,55,17.3,-9.9
 2004/04/02, 9:30,20.3,53,17.5,-9.9
 2004/04/02, 9:45,20.2,52,17.3,-9.9
 2004/04/02,10:00,20.1,51,17.4,-9.9
 2004/04/02,10:15,20.1,51,17.7,-9.9
 2004/04/02,10:30,19.9,50,17.9,-9.9
 2004/04/02,10:45,19.9,50,18.1,-9.9
 2004/04/02,11:00,19.9,50,18.4,-9.9
 2004/04/02,11:15,19.8,49,19.1,-9.9
 2004/04/02,11:30,19.9,49,19.4,-9.9
 2004/04/02,11:45,19.7,49,18.8,-9.9
 2004/04/02,12:00,19.9,48,18.7,-9.9
 2004/04/02,12:15,19.8,48,18.4,-9.9
 2004/04/02,12:30,19.9,48,18.4,-9.9
 2004/04/02,12:45,20,47,18.5,-9.9
 2004/04/02,13:00,19.9,47,18.5,-9.9
 2004/04/02,13:15,20,47,18.7,-9.9
 2004/04/02,13:30,20,47,18.7,-9.9
 2004/04/02,13:45,20.1,46,18.6,-9.9
 2004/04/02,14:00,20.1,46,18.6,-9.9
 2004/04/02,14:15,20.1,46,18.6,-9.9
 2004/04/02,14:30,20.2,45,18.7,-9.9
 2004/04/02,14:45,20.1,45,18.9,-9.9
 2004/04/02,15:00,20.2,45,18.9,-9.9
 2004/04/02,15:15,20.1,44,18.8,-9.9
 2004/04/02,15:30,20.3,44,18.8,-9.9
 2004/04/02,15:45,20.4,44,18.7,-9.9
 2004/04/02,16:00,20.5,44,18.8,-9.9
 2004/04/02,16:15,20.7,43,18.7,-9.9
 2004/04/02,16:30,20.6,43,18.7,-9.9
 2004/04/02,16:45,20.8,43,19.1,-9.9
 2004/04/02,17:00,20.8,43,19.2,-9.9
 2004/04/02,17:15,20.9,42,19.1,-9.9
 2004/04/02,17:30,20.9,42,18.8,-9.9
 2004/04/02,17:45,20.9,41,19,-9.9
 2004/04/02,18:00,21,41,18.9,-9.9
 2004/04/02,18:15,21.4,41,18.4,-9.9
 2004/04/02,18:30,21.5,45,18.1,-9.9
 2004/04/02,18:45,21.7,42,18,-9.9
 2004/04/02,19:00,21.7,40,17.9,-9.9
 2004/04/02,19:15,21.7,40,17.8,-9.9
 2004/04/02,19:30,21.3,39,17.8,-9.9
 2004/04/02,19:45,21.7,40,18.1,-9.9
 2004/04/02,20:00,22.2,41,17.9,-9.9
 2004/04/02,20:15,22.5,40,18,-9.9
 2004/04/02,20:30,22.3,40,17.9,-9.9
 2004/04/02,20:45,22.1,40,17.9,-9.9
 2004/04/02,21:00,22.3,39,17.8,-9.9
 2004/04/02,21:15,22.4,39,17.7,-9.9
 2004/04/02,21:30,22.5,40,17.8,-9.9
 2004/04/02,21:45,22.6,42,17.6,-9.9
 2004/04/02,22:00,22.8,40,17.6,-9.9
 2004/04/02,22:15,22.5,41,17.5,-9.9
 2004/04/02,22:30,22.1,41,17.4,-9.9
 2004/04/02,22:45,22.1,42,17.3,-9.9
 2004/04/02,23:00,21.9,43,17.3,-9.9
 2004/04/02,23:15,21.8,43,17.2,-9.9
 2004/04/02,23:30,21.6,43,17,-9.9
 2004/04/02,23:45,21.4,44,16.9,-9.9
 2004/04/03, 0:00,21.2,44,16.7,-9.9
 2004/04/03, 0:15,21.1,44,16.7,-9.9
 2004/04/03, 0:30,20.8,44,16.5,-9.9
 2004/04/03, 0:45,20.8,44,16.4,-9.9
 2004/04/03, 1:00,20.6,44,16.3,-9.9
 2004/04/03, 1:15,20.3,45,16.2,-9.9
 2004/04/03, 1:30,20.3,45,16.3,-9.9
 2004/04/03, 1:45,20,45,16.1,-9.9
 2004/04/03, 2:00,20,45,15.9,-9.9
 2004/04/03, 2:15,19.7,45,15.9,-9.9
 2004/04/03, 2:30,19.5,45,15.7,-9.9
 2004/04/03, 2:45,19.4,45,15.7,-9.9
 2004/04/03, 3:00,19.2,45,15.5,-9.9
 2004/04/03, 3:15,19.1,45,15.5,-9.9
 2004/04/03, 3:30,18.8,46,15.4,-9.9
 2004/04/03, 3:45,18.8,46,15.4,-9.9
 2004/04/03, 4:00,18.6,46,15.3,-9.9
 2004/04/03, 4:15,18.6,46,15.2,-9.9
 2004/04/03, 4:30,18.4,46,15.1,-9.9
 2004/04/03, 4:45,18.3,46,15,-9.9
 2004/04/03, 5:00,18.1,46,14.9,-9.9
 2004/04/03, 5:15,18,47,14.8,-9.9
 2004/04/03, 5:30,18,47,14.7,-9.9
 2004/04/03, 5:45,17.8,46,14.8,-9.9
 2004/04/03, 6:00,17.7,47,14.7,-9.9
 2004/04/03, 6:15,17.6,48,14.5,-9.9
 2004/04/03, 6:30,17.6,48,14.6,-9.9
 2004/04/03, 6:45,17.5,48,14.6,-9.9
 2004/04/03, 7:00,17.4,48,14.6,-9.9
 2004/04/03, 7:15,17.3,48,14.8,-9.9
 2004/04/03, 7:30,17.3,49,14.7,-9.9
 2004/04/03, 7:45,17.2,49,14.8,-9.9
 2004/04/03, 8:00,17.3,49,14.9,-9.9
 2004/04/03, 8:15,17.3,49,15,-9.9
 2004/04/03, 8:30,17.4,49,15.1,-9.9
 2004/04/03, 8:45,17.3,48,15.2,-9.9
 2004/04/03, 9:00,17.3,48,15.4,-9.9
 2004/04/03, 9:15,17.2,48,15.7,-9.9
 2004/04/03, 9:30,17.4,49,15.8,-9.9
 2004/04/03, 9:45,17.5,48,16.1,-9.9
 2004/04/03,10:00,17.5,48,16.3,-9.9
 2004/04/03,10:15,17.5,48,16.4,-9.9
 2004/04/03,10:30,17.5,48,16.5,-9.9
 2004/04/03,10:45,17.7,47,16.8,-9.9
 2004/04/03,11:00,17.7,47,17.2,-9.9
 2004/04/03,11:15,17.6,47,17.8,-9.9
 2004/04/03,11:30,17.7,47,18.2,-9.9
 2004/04/03,11:45,17.9,46,17.5,-9.9
 2004/04/03,12:00,17.9,46,17.4,-9.9
 2004/04/03,12:15,17.9,45,17.6,-9.9
 2004/04/03,12:30,18,45,17.6,-9.9
 2004/04/03,12:45,18.1,44,17.5,-9.9
 2004/04/03,13:00,18.2,43,17.5,-9.9
 2004/04/03,13:15,18.2,43,17.5,-9.9
 2004/04/03,13:30,18.3,43,17.4,-9.9
 2004/04/03,13:45,18.4,43,17.3,-9.9
 2004/04/03,14:00,18.6,42,17.2,-9.9
 2004/04/03,14:15,18.8,42,17.4,-9.9
 2004/04/03,14:30,18.8,42,17.9,-9.9
 2004/04/03,14:45,18.8,42,17.9,-9.9
 2004/04/03,15:00,19.2,41,18.1,-9.9
 2004/04/03,15:15,19.3,41,18.3,-9.9
 2004/04/03,15:30,19.5,41,18.3,-9.9
 2004/04/03,15:45,19.7,41,18.2,-9.9
 2004/04/03,16:00,19.6,41,18.3,-9.9
 2004/04/03,16:15,19.8,41,18.2,-9.9
 2004/04/03,16:30,19.8,41,18.2,-9.9
 2004/04/03,16:45,19.8,41,18.1,-9.9
 2004/04/03,17:00,19.8,41,18,-9.9
 2004/04/03,17:15,19.7,42,17.9,-9.9
 2004/04/03,17:30,19.7,42,17.8,-9.9
 2004/04/03,17:45,19.6,42,17.6,-9.9
 2004/04/03,18:00,19.6,42,17.7,-9.9
 2004/04/03,18:15,19.4,42,17.6,-9.9
 2004/04/03,18:30,19.3,42,17.5,-9.9
 2004/04/03,18:45,19.1,42,17.3,-9.9
 2004/04/03,19:00,19.2,43,17.3,-9.9
 2004/04/03,19:15,19,43,17.1,-9.9
 2004/04/03,19:30,18.9,43,17.2,-9.9
 2004/04/03,19:45,18.8,43,17,-9.9
 2004/04/03,20:00,18.8,43,17.1,-9.9
 2004/04/03,20:15,18.6,43,17.1,-9.9
 2004/04/03,20:30,18.6,43,17,-9.9
 2004/04/03,20:45,18.5,43,16.9,-9.9
 2004/04/03,21:00,18.5,43,16.7,-9.9
 2004/04/03,21:15,18.3,44,16.7,-9.9
 2004/04/03,21:30,18.2,44,16.3,-9.9
 2004/04/03,21:45,18.3,44,16.8,-9.9
 2004/04/03,22:00,19.8,44,16.9,-9.9
 2004/04/03,22:15,20,46,16.7,-9.9
 2004/04/03,22:30,20.5,46,16.9,-9.9
 2004/04/03,22:45,20.4,47,16.9,-9.9
 2004/04/03,23:00,20.2,48,16.8,-9.9
 2004/04/03,23:15,19.9,49,16.7,-9.9
 2004/04/03,23:30,19.8,49,17.1,-9.9
 2004/04/03,23:45,19.6,49,16.8,-9.9
 2004/04/04, 0:00,19.6,49,16.6,-9.9
 2004/04/04, 0:15,19.4,49,16.4,-9.9
 2004/04/04, 0:30,19.3,49,16.4,-9.9
 2004/04/04, 0:45,19.2,49,16.3,-9.9
 2004/04/04, 1:00,19.2,49,16.2,-9.9
 2004/04/04, 1:15,19,49,16.1,-9.9
 2004/04/04, 1:30,18.9,48,16,-9.9
 2004/04/04, 1:45,18.9,48,15.9,-9.9
 2004/04/04, 2:00,18.7,48,15.8,-9.9
 2004/04/04, 2:15,18.6,48,15.7,-9.9
 2004/04/04, 2:30,18.3,48,15.7,-9.9
 2004/04/04, 2:45,18.4,48,15.5,-9.9
 2004/04/04, 3:00,18.2,48,15.4,-9.9
 2004/04/04, 3:15,18.1,48,15.3,-9.9
 2004/04/04, 3:30,18,48,15.2,-9.9
 2004/04/04, 3:45,17.8,48,15.2,-9.9
 2004/04/04, 4:00,17.8,48,15.2,-9.9
 2004/04/04, 4:15,17.7,48,15,-9.9
 2004/04/04, 4:30,17.6,48,14.9,-9.9
 2004/04/04, 4:45,17.5,48,14.9,-9.9
 2004/04/04, 5:00,17.4,48,14.9,-9.9
 2004/04/04, 5:15,17.3,48,14.8,-9.9
 2004/04/04, 5:30,17.2,49,14.6,-9.9
 2004/04/04, 5:45,17.2,49,14.6,-9.9
 2004/04/04, 6:00,17.1,49,14.5,-9.9
 2004/04/04, 6:15,17.1,49,14.4,-9.9
 2004/04/04, 6:30,16.9,49,14.4,-9.9
 2004/04/04, 6:45,20.1,48,14.5,-9.9
 2004/04/04, 7:00,20.3,50,14.7,-9.9
 2004/04/04, 7:15,20.1,51,14.5,-9.9
 2004/04/04, 7:30,20.2,52,14.4,-9.9
 2004/04/04, 7:45,20.4,52,14.3,-9.9
 2004/04/04, 8:00,20,52,14.8,-9.9
 2004/04/04, 8:15,19.3,51,14.4,-9.9
 2004/04/04, 8:30,19.2,50,14.1,-9.9
 2004/04/04, 8:45,19.1,50,14.1,-9.9
 2004/04/04, 9:00,18.9,50,14,-9.9
 2004/04/04, 9:15,18.6,50,13.8,-9.9
 2004/04/04, 9:30,18.5,50,13.7,-9.9
 2004/04/04, 9:45,18.6,50,13.7,-9.9
 2004/04/04,10:00,18.5,50,13.6,-9.9
 2004/04/04,10:15,18.4,50,13.5,-9.9
 2004/04/04,10:30,18.2,50,13.5,-9.9
 2004/04/04,10:45,18,50,13.3,-9.9
 2004/04/04,11:00,17.8,50,13.2,-9.9
 2004/04/04,11:15,17.6,50,13.2,-9.9
 2004/04/04,11:30,17.4,50,13,-9.9
 2004/04/04,11:45,17.3,50,13,-9.9
 2004/04/04,12:00,17.1,50,12.9,-9.9
 2004/04/04,12:15,17.1,50,12.9,-9.9
 2004/04/04,12:30,16.9,50,12.8,-9.9
 2004/04/04,12:45,16.8,50,12.8,-9.9
 2004/04/04,13:00,16.6,50,12.7,-9.9
 2004/04/04,13:15,16.5,50,12.7,-9.9
 2004/04/04,13:30,16.5,49,12.7,-9.9
 2004/04/04,13:45,16.4,49,12.6,-9.9
 2004/04/04,14:00,17,50,13,-9.9
 2004/04/04,14:15,20,49,12.7,-9.9
 2004/04/04,14:30,20.7,49,12.6,-9.9
 2004/04/04,14:45,20.7,49,12.8,-9.9
 2004/04/04,15:00,20.5,49,12.8,-9.9
 2004/04/04,15:15,20.5,49,12.8,-9.9
 2004/04/04,15:30,20.7,49,12.8,-9.9
 2004/04/04,15:45,20.7,49,12.7,-9.9
 2004/04/04,16:00,20.8,48,12.8,-9.9
 2004/04/04,16:15,20.8,47,12.9,-9.9
 2004/04/04,16:30,20.1,47,12.7,-9.9
 2004/04/04,16:45,19.4,48,12.6,-9.9
 2004/04/04,17:00,19.2,48,12.9,-9.9
 2004/04/04,17:15,18.8,49,13.2,-9.9
 2004/04/04,17:30,18.6,48,13.3,-9.9
 2004/04/04,17:45,18.2,50,13.6,-9.9
 2004/04/04,18:00,18,50,13.7,-9.9
 2004/04/04,18:15,17.9,50,13.4,-9.9
 2004/04/04,18:30,17.8,51,13.2,-9.9
 2004/04/04,18:45,18,55,13.1,-9.9
 2004/04/04,19:00,19.4,54,13,-9.9
 2004/04/04,19:15,19.8,56,13.5,-9.9
 2004/04/04,19:30,19.9,57,13.4,-9.9
 2004/04/04,19:45,20.5,59,13.2,-9.9
 2004/04/04,20:00,20.7,54,13.3,-9.9
 2004/04/04,20:15,20.6,54,13.2,-9.9
 2004/04/04,20:30,20.5,55,13.2,-9.9
 2004/04/04,20:45,20.7,54,13.2,-9.9
 2004/04/04,21:00,20.7,54,13.3,-9.9
 2004/04/04,21:15,20.9,55,13.3,-9.9
 2004/04/04,21:30,20.7,56,13.2,-9.9
 2004/04/04,21:45,21,55,13,-9.9
 2004/04/04,22:00,21.1,55,13.1,-9.9
 2004/04/04,22:15,20.9,54,13,-9.9
 2004/04/04,22:30,20.4,54,13,-9.9
 2004/04/04,22:45,20,54,12.8,-9.9
 2004/04/04,23:00,19.8,54,12.7,-9.9
 2004/04/04,23:15,19.4,53,12.7,-9.9
 2004/04/04,23:30,19.1,53,12.7,-9.9
 2004/04/04,23:45,18.9,53,12.6,-9.9
 2004/04/05, 0:00,18.6,53,12.8,-9.9
 2004/04/05, 0:15,18.4,52,12.5,-9.9
 2004/04/05, 0:30,18.1,51,12.5,-9.9
 2004/04/05, 0:45,17.9,51,12.4,-9.9
 2004/04/05, 1:00,17.6,51,12.3,-9.9
 2004/04/05, 1:15,17.5,51,12.3,-9.9
 2004/04/05, 1:30,17.2,52,12.2,-9.9
 2004/04/05, 1:45,17.1,52,12.2,-9.9
 2004/04/05, 2:00,17.1,52,12,-9.9
 2004/04/05, 2:15,16.9,52,12,-9.9
 2004/04/05, 2:30,16.6,52,12,-9.9
 2004/04/05, 2:45,16.4,52,11.8,-9.9
 2004/04/05, 3:00,16.5,52,11.8,-9.9
 2004/04/05, 3:15,16.4,52,11.7,-9.9
 2004/04/05, 3:30,16.3,52,11.6,-9.9
 2004/04/05, 3:45,16,52,11.6,-9.9
 2004/04/05, 4:00,15.9,52,11.5,-9.9
 2004/04/05, 4:15,15.7,52,11.5,-9.9
 2004/04/05, 4:30,15.6,52,11.4,-9.9
 2004/04/05, 4:45,15.4,52,11.2,-9.9
 2004/04/05, 5:00,15.2,53,11.2,-9.9
 2004/04/05, 5:15,15,53,11.1,-9.9
 2004/04/05, 5:30,14.8,53,11,-9.9
 2004/04/05, 5:45,14.7,53,10.9,-9.9
 2004/04/05, 6:00,16.5,53,11,-9.9
 2004/04/05, 6:15,16.5,55,10.8,-9.9
 2004/04/05, 6:30,15.8,57,10.2,-9.9
 2004/04/05, 6:45,19.2,54,10.7,-9.9
 2004/04/05, 7:00,19.7,50,11.6,-9.9
 2004/04/05, 7:15,20.1,50,11.5,-9.9
 2004/04/05, 7:30,20.3,51,11.6,-9.9
 2004/04/05, 7:45,20.4,51,11.6,-9.9
 2004/04/05, 8:00,20.2,51,11.7,-9.9
 2004/04/05, 8:15,20.3,52,11.9,-9.9
 2004/04/05, 8:30,19.6,53,11.8,-9.9
 2004/04/05, 8:45,20.5,52,12.2,-9.9
 2004/04/05, 9:00,20.5,51,12.3,-9.9
 2004/04/05, 9:15,20.5,50,13.3,-9.9
 2004/04/05, 9:30,19.2,50,13.4,-9.9
 2004/04/05, 9:45,18.6,49,13.6,-9.9
 2004/04/05,10:00,18.1,49,13.7,-9.9
 2004/04/05,10:15,17.8,48,13.7,-9.9
 2004/04/05,10:30,17.5,49,13.8,-9.9
 2004/04/05,10:45,17.3,49,14,-9.9
 2004/04/05,11:00,17.2,49,14.7,-9.9
 2004/04/05,11:15,17.1,49,15.4,-9.9
 2004/04/05,11:30,17,49,16,-9.9
 2004/04/05,11:45,16.8,50,14.7,-9.9
 2004/04/05,12:00,16.8,50,14.2,-9.9
 2004/04/05,12:15,16.8,50,14.1,-9.9
 2004/04/05,12:30,16.8,51,14.2,-9.9
 2004/04/05,12:45,16.9,51,14,-9.9
 2004/04/05,13:00,16.8,51,14.1,-9.9
 2004/04/05,13:15,16.7,50,14.4,-9.9
 2004/04/05,13:30,16.6,49,14.5,-9.9
 2004/04/05,13:45,16.5,49,14.6,-9.9
 2004/04/05,14:00,16.6,49,14.6,-9.9
 2004/04/05,14:15,16.7,48,14.8,-9.9
 2004/04/05,14:30,16.6,48,14.7,-9.9
 2004/04/05,14:45,16.5,48,14.8,-9.9
 2004/04/05,15:00,16.6,48,14.8,-9.9
 2004/04/05,15:15,16.7,48,14.8,-9.9
 2004/04/05,15:30,16.9,48,14.9,-9.9
 2004/04/05,15:45,17.1,47,15,-9.9
 2004/04/05,16:00,17.3,48,15.1,-9.9
 2004/04/05,16:15,17.5,47,15.2,-9.9
 2004/04/05,16:30,17.7,47,15.4,-9.9
 2004/04/05,16:45,18,46,15.5,-9.9
 2004/04/05,17:00,18.1,45,15.6,-9.9
 2004/04/05,17:15,18.3,45,15.7,-9.9
 2004/04/05,17:30,18.5,44,15.8,-9.9
 2004/04/05,17:45,18.6,44,15.8,-9.9
 2004/04/05,18:00,18.5,43,15.7,-9.9
 2004/04/05,18:15,20.1,46,15.4,-9.9
 2004/04/05,18:30,20.9,46,15,-9.9
 2004/04/05,18:45,20.7,44,14.8,-9.9
 2004/04/05,19:00,21,42,14.5,-9.9
 2004/04/05,19:15,20.9,41,14.3,-9.9
 2004/04/05,19:30,21,40,14.9,-9.9
 2004/04/05,19:45,21,44,14.9,-9.9
 2004/04/05,20:00,21,47,14.8,-9.9
 2004/04/05,20:15,21.1,46,14.8,-9.9
 2004/04/05,20:30,21.2,47,14.7,-9.9
 2004/04/05,20:45,21.5,44,14.6,-9.9
 2004/04/05,21:00,21.2,46,14.6,-9.9
 2004/04/05,21:15,21.7,46,14.6,-9.9
 2004/04/05,21:30,21.8,46,14.8,-9.9
 2004/04/05,21:45,21.9,48,14.6,-9.9
 2004/04/05,22:00,21.7,55,14.5,-9.9
 2004/04/05,22:15,21.6,54,14.5,-9.9
 2004/04/05,22:30,21.1,51,15.2,-9.9
 2004/04/05,22:45,20.6,50,15.2,-9.9
 2004/04/05,23:00,20.3,49,15.1,-9.9
 2004/04/05,23:15,20,50,14.6,-9.9
 2004/04/05,23:30,19.8,51,14.3,-9.9
 2004/04/05,23:45,19.6,51,14.2,-9.9
 2004/04/06, 0:00,19.4,52,14.1,-9.9
 2004/04/06, 0:15,19.1,52,13.9,-9.9
 2004/04/06, 0:30,18.9,52,13.8,-9.9
 2004/04/06, 0:45,18.7,52,13.8,-9.9
 2004/04/06, 1:00,18.5,52,13.7,-9.9
 2004/04/06, 1:15,18.2,52,13.6,-9.9
 2004/04/06, 1:30,18.1,52,13.5,-9.9
 2004/04/06, 1:45,17.8,52,13.4,-9.9
 2004/04/06, 2:00,17.7,52,13.3,-9.9
 2004/04/06, 2:15,17.6,52,13.3,-9.9
 2004/04/06, 2:30,17.4,52,13.2,-9.9
 2004/04/06, 2:45,17.2,53,13.1,-9.9
 2004/04/06, 3:00,17.1,53,13,-9.9
 2004/04/06, 3:15,16.9,53,13,-9.9
 2004/04/06, 3:30,16.9,53,12.9,-9.9
 2004/04/06, 3:45,16.8,53,12.9,-9.9
 2004/04/06, 4:00,16.6,53,12.8,-9.9
 2004/04/06, 4:15,16.4,53,12.8,-9.9
 2004/04/06, 4:30,16.3,53,12.7,-9.9
 2004/04/06, 4:45,16.2,53,12.6,-9.9
 2004/04/06, 5:00,16.2,53,12.5,-9.9
 2004/04/06, 5:15,16,53,12.5,-9.9
 2004/04/06, 5:30,16,53,12.8,-9.9
 2004/04/06, 5:45,15.8,58,12.7,-9.9
 2004/04/06, 6:00,15.6,55,12.7,-9.9
 2004/04/06, 6:15,15.4,54,12.5,-9.9
 2004/04/06, 6:30,18.8,51,12.3,-9.9
 2004/04/06, 6:45,19.3,51,12.3,-9.9
 2004/04/06, 7:00,20.3,49,12.5,-9.9
 2004/04/06, 7:15,20.5,48,12.7,-9.9
 2004/04/06, 7:30,20.9,46,12.9,-9.9
 2004/04/06, 7:45,21.7,44,13,-9.9
 2004/04/06, 8:00,21.1,44,13.2,-9.9
 2004/04/06, 8:15,21,45,13.6,-9.9
 2004/04/06, 8:30,20.5,45,13.9,-9.9
 2004/04/06, 8:45,20,47,14.1,-9.9
 2004/04/06, 9:00,19.7,47,14.7,-9.9
 2004/04/06, 9:15,19.7,51,15.2,-9.9
 2004/04/06, 9:30,19.3,50,15.4,-9.9
 2004/04/06, 9:45,19.2,49,15.6,-9.9
 2004/04/06,10:00,19,48,15.7,-9.9
 2004/04/06,10:15,18.9,48,15.9,-9.9
 2004/04/06,10:30,18.8,48,16,-9.9
 2004/04/06,10:45,18.6,48,16.1,-9.9
 2004/04/06,11:00,18.5,48,16.8,-9.9
 2004/04/06,11:15,18.5,48,17.6,-9.9
 2004/04/06,11:30,18.5,48,18.2,-9.9
 2004/04/06,11:45,18.5,48,16.8,-9.9
 2004/04/06,12:00,18.8,48,16.7,-9.9
 2004/04/06,12:15,18.7,48,17,-9.9
 2004/04/06,12:30,18.7,48,17.2,-9.9
 2004/04/06,12:45,18.7,47,17.1,-9.9
 2004/04/06,13:00,18.8,47,17.2,-9.9
 2004/04/06,13:15,18.8,47,17.1,-9.9
 2004/04/06,13:30,18.9,48,17.2,-9.9
 2004/04/06,13:45,19,47,17.3,-9.9
 2004/04/06,14:00,19.1,47,17.2,-9.9
 2004/04/06,14:15,19.2,47,17.5,-9.9
 2004/04/06,14:30,19.3,47,17.5,-9.9
 2004/04/06,14:45,19.4,47,17.4,-9.9
 2004/04/06,15:00,19.5,47,17.5,-9.9
 2004/04/06,15:15,19.7,47,17.6,-9.9
 2004/04/06,15:30,19.7,46,17.6,-9.9
 2004/04/06,15:45,20.1,46,17.6,-9.9
 2004/04/06,16:00,20.3,45,18.2,-9.9
 2004/04/06,16:15,20.4,41,18.4,-9.9
 2004/04/06,16:30,20.4,40,18.4,-9.9
 2004/04/06,16:45,20.7,41,18.8,-9.9
 2004/04/06,17:00,21.1,41,18.7,-9.9
 2004/04/06,17:15,21.2,41,18.8,-9.9
 2004/04/06,17:30,21.4,45,18.8,-9.9
 2004/04/06,17:45,21.5,45,18.8,-9.9
 2004/04/06,18:00,21.4,42,18.5,-9.9
 2004/04/06,18:15,21.3,42,18.1,-9.9
 2004/04/06,18:30,21.1,41,17.9,-9.9
 2004/04/06,18:45,21.3,42,17.9,-9.9
 2004/04/06,19:00,21,42,17.5,-9.9
 2004/04/06,19:15,21,42,17.5,-9.9
 2004/04/06,19:30,20.8,42,17.5,-9.9
 2004/04/06,19:45,21.4,42,18.1,-9.9
 2004/04/06,20:00,21.4,44,18,-9.9
 2004/04/06,20:15,21.6,44,17.9,-9.9
 2004/04/06,20:30,22,45,17.6,-9.9
 2004/04/06,20:45,22,48,17.8,-9.9
 2004/04/06,21:00,21.6,44,18.1,-9.9
 2004/04/06,21:15,21.6,47,18,-9.9
 2004/04/06,21:30,21.7,48,17.8,-9.9
 2004/04/06,21:45,21.6,50,17.8,-9.9
 2004/04/06,22:00,21.8,52,17.6,-9.9
 2004/04/06,22:15,21.5,52,17.6,-9.9
 2004/04/06,22:30,21.6,54,17.6,-9.9
 2004/04/06,22:45,21.6,58,17.6,-9.9
 2004/04/06,23:00,21.5,57,17.5,-9.9
 2004/04/06,23:15,21.2,55,17.9,-9.9
 2004/04/06,23:30,21.1,54,17.5,-9.9
 2004/04/06,23:45,21,53,17.5,-9.9
 2004/04/07, 0:00,20.9,52,17.4,-9.9
 2004/04/07, 0:15,20.8,52,17.5,-9.9
 2004/04/07, 0:30,20.7,52,17.4,-9.9
 2004/04/07, 0:45,20.6,51,17.5,-9.9
 2004/04/07, 1:00,20.4,51,17.3,-9.9
 2004/04/07, 1:15,20.5,51,17.3,-9.9
 2004/04/07, 1:30,20.3,51,17.3,-9.9
 2004/04/07, 1:45,20.3,51,17.2,-9.9
 2004/04/07, 2:00,20.1,51,17.2,-9.9
 2004/04/07, 2:15,20.1,51,17.1,-9.9
 2004/04/07, 2:30,20,50,17,-9.9
 2004/04/07, 2:45,19.9,50,17,-9.9
 2004/04/07, 3:00,19.8,50,16.9,-9.9
 2004/04/07, 3:15,19.7,50,16.9,-9.9
 2004/04/07, 3:30,19.7,50,16.7,-9.9
 2004/04/07, 3:45,19.4,50,16.6,-9.9
 2004/04/07, 4:00,19.5,50,16.7,-9.9
 2004/04/07, 4:15,19.3,50,16.5,-9.9
 2004/04/07, 4:30,19.3,50,16.4,-9.9
 2004/04/07, 4:45,19.2,50,16.4,-9.9
 2004/04/07, 5:00,19.1,50,16.3,-9.9
 2004/04/07, 5:15,19,50,16.1,-9.9
 2004/04/07, 5:30,18.8,51,16.1,-9.9
 2004/04/07, 5:45,18.8,51,16.1,-9.9
 2004/04/07, 6:00,18.9,58,16.2,-9.9
 2004/04/07, 6:15,18.6,55,16.1,-9.9
 2004/04/07, 6:30,18.4,54,16.1,-9.9
 2004/04/07, 6:45,19.8,56,16,-9.9
 2004/04/07, 7:00,20.2,58,16.2,-9.9
 2004/04/07, 7:15,20.4,55,16.1,-9.9
 2004/04/07, 7:30,20.2,54,16.1,-9.9
 2004/04/07, 7:45,20.7,54,16.4,-9.9
 2004/04/07, 8:00,21,53,16.5,-9.9
 2004/04/07, 8:15,21,54,16.7,-9.9
 2004/04/07, 8:30,21.6,53,16.9,-9.9
 2004/04/07, 8:45,21.5,54,17.1,-9.9
 2004/04/07, 9:00,21.2,53,17.1,-9.9
 2004/04/07, 9:15,21.2,52,17.6,-9.9
 2004/04/07, 9:30,21,52,17.9,-9.9
 2004/04/07, 9:45,21.2,59,17.7,-9.9
 2004/04/07,10:00,21.3,57,17.7,-9.9
 2004/04/07,10:15,21.4,56,17.9,-9.9
 2004/04/07,10:30,21.3,55,18,-9.9
 2004/04/07,10:45,21.4,54,18.3,-9.9
 2004/04/07,11:00,21.3,53,18.7,-9.9
 2004/04/07,11:15,21.2,52,19.5,-9.9
 2004/04/07,11:30,21.2,51,20,-9.9
 2004/04/07,11:45,21.1,50,19.8,-9.9
 2004/04/07,12:00,21.2,50,19.2,-9.9
 2004/04/07,12:15,21.2,49,19.4,-9.9
 2004/04/07,12:30,21.3,49,19.2,-9.9
 2004/04/07,12:45,21.3,49,19.3,-9.9
 2004/04/07,13:00,21.3,49,19.5,-9.9
 2004/04/07,13:15,21.4,49,19.7,-9.9
 2004/04/07,13:30,21.4,48,20,-9.9
 2004/04/07,13:45,21.5,48,20.2,-9.9
 2004/04/07,14:00,21.5,48,20.3,-9.9
 2004/04/07,14:15,21.7,47,20.3,-9.9
 2004/04/07,14:30,21.7,47,20.5,-9.9
 2004/04/07,14:45,21.8,47,20.5,-9.9
 2004/04/07,15:00,21.8,47,20.5,-9.9
 2004/04/07,15:15,21.9,46,20.5,-9.9
 2004/04/07,15:30,22,46,20.5,-9.9
 2004/04/07,15:45,22.1,45,20.5,-9.9
 2004/04/07,16:00,22.3,44,20.6,-9.9
 2004/04/07,16:15,22.1,43,20.6,-9.9
 2004/04/07,16:30,22.3,43,20.6,-9.9
 2004/04/07,16:45,22.3,42,20.6,-9.9
 2004/04/07,17:00,22.4,42,20.6,-9.9
 2004/04/07,17:15,22.4,42,20.6,-9.9
 2004/04/07,17:30,22.4,43,20.4,-9.9
 2004/04/07,17:45,22.4,43,20.4,-9.9
 2004/04/07,18:00,22.2,43,20.2,-9.9
 2004/04/07,18:15,22.3,43,20.1,-9.9
 2004/04/07,18:30,22.1,43,20.2,-9.9
 2004/04/07,18:45,22.1,44,20.1,-9.9
 2004/04/07,19:00,22,44,20,-9.9